QPF
0.00 0.00 0.00 0.00 0.00 0.00 0.00 0.00 0.00 0.00 0.00 0.00 0.00 0.00 0.00 0.00 0.00 0.00 0.00 0.00 0.00 0.00 0.00 0.00 0.00 0.00 0.00 0.00 0.00 0.00 0.00 0.00 0.00 0.00 0.00 0.00 0.00 0.00 0.00 0.00 0.00 0.00 0.00
0.00 0.00 0.00 0.00 0.00 0.00 0.00 0.00 0.00 0.00 0.00 0.00 0.00 0.00 0.00 0.00 0.00 0.00 0.00 0.00 0.00 0.00 0.00 0.00 0.00 0.00 0.00 0.00 0.00 0.00 0.00 0.00 0.00 0.00 0.00 0.00 0.00 0.00 0.00 0.00 0.00 0.00 0.00
0.00 0.00 0.00 0.00 0.00 0.00 0.00 0.00 0.00 0.00 0.00 0.00 0.00 0.00 0.00 0.00 0.00 0.00 0.00 0.00 0.00 0.00 0.00 0.00 0.00 0.00 0.00 0.00 0.00 0.00 0.00 0.00 0.00 0.00 0.00 0.00 0.00 0.00 0.00 0.00 0.00 0.00 0.00
0.01 0.02 0.05 0.05 0.02 0.00 0.00 0.00 0.00 0.00 0.00 0.00 0.00 0.00 0.00 0.00 0.00 0.00 0.00 0.00 0.00 0.00 0.00 0.00 0.00 0.00 0.00 0.00 0.00 0.00 0.00 0.00 0.00 0.00 0.00 0.00 0.00 0.00 0.00 0.00 0.00 0.00 0.00
0.02 0.01 0.05 0.08 0.06 0.00 0.00 0.00 0.00 0.00 0.00 0.00 0.00 0.00 0.00 0.00 0.00 0.00 0.00 0.00 0.00 0.00 0.00 0.00 0.00 0.00 0.00 0.00 0.00 0.00 0.00 0.00 0.00 0.00 0.00 0.00 0.00 0.00 0.00 0.00 0.00 0.00 0.00
0.01 0.04 0.04 0.11 0.07 0.00 0.00 0.00 0.00 0.00 0.00 0.00 0.00 0.00 0.00 0.00 0.00 0.00 0.00 0.00 0.00 0.00 0.00 0.00 0.00 0.00 0.00 0.00 0.00 0.00 0.00 0.00 0.00 0.00 0.00 0.00 0.00 0.00 0.00 0.00 0.00 0.00 0.00
0.01 0.02 0.05 0.11 0.05 0.00 0.00 0.00 0.00 0.00 0.00 0.00 0.00 0.00 0.00 0.00 0.00 0.00 0.00 0.00 0.00 0.00 0.00 0.00 0.00 0.00 0.00 0.00 0.00 0.00 0.00 0.00 0.00 0.00 0.00 0.00 0.00 0.00 0.00 0.00 0.00 0.00 0.00
0.01 0.02 0.20 0.12 0.01 0.00 0.00 0.00 0.00 0.00 0.00 0.00 0.00 0.00 0.00 0.00 0.00 0.00 0.00 0.00 0.00 0.00 0.00 0.00 0.00 0.00 0.00 0.00 0.00 0.00 0.00 0.00 0.00 0.00 0.00 0.00 0.00 0.00 0.00 0.00 0.00 0.00 0.00
0.20 0.15 0.14 0.08 0.01 0.04 0.02 0.01 0.00 0.00 0.00 0.00 0.00 0.00 0.00 0.00 0.00 0.00 0.00 0.00 0.00 0.00 0.00 0.00 0.00 0.00 0.00 0.00 0.00 0.00 0.00 0.00 0.00 0.00 0.00 0.00 0.00 0.00 0.00 0.00 0.00 0.00 0.00
0.19 0.26 0.28 0.23 0.21 0.12 0.09 0.04 0.00 0.00 0.00 0.00 0.00 0.00 0.00 0.00 0.00 0.00 0.00 0.00 0.00 0.00 0.00 0.00 0.00 0.00 0.00 0.00 0.00 0.00 0.00 0.00 0.00 0.00 0.00 0.00 0.00 0.00 0.00 0.00 0.00 0.00 0.00
0.25 0.37 0.40 0.34 0.20 0.12 0.03 0.00 0.00 0.00 0.00 0.00 0.00 0.00 0.00 0.00 0.00 0.00 0.00 0.00 0.00 0.00 0.00 0.00 0.00 0.00 0.00 0.00 0.00 0.00 0.00 0.00 0.00 0.00 0.00 0.00 0.00 0.00 0.00 0.00 0.00 0.00 0.00
0.34 0.33 0.25 0.11 0.06 0.02 0.00 0.00 0.00 0.00 0.00 0.00 0.00 0.00 0.00 0.00 0.00 0.00 0.00 0.00 0.00 0.00 0.00 0.00 0.00 0.00 0.00 0.00 0.00 0.00 0.00 0.00 0.00 0.00 0.00 0.00 0.00 0.00 0.00 0.00 0.00 0.00 0.00
0.04 0.03 0.01 0.00 0.00 0.00 0.01 0.00 0.00 0.00 0.00 0.00 0.00 0.00 0.00 0.00 0.00 0.00 0.00 0.00 0.00 0.00 0.00 0.00 0.00 0.00 0.00 0.00 0.00 0.00 0.00 0.00 0.00 0.00 0.00 0.00 0.00 0.00 0.00 0.00 0.00 0.00 0.00
0.01 0.01 0.01 0.00 0.00 0.03 0.02 0.00 0.00 0.00 0.00 0.00 0.00 0.00 0.00 0.00 0.00 0.00 0.00 0.00 0.00 0.00 0.00 0.00 0.00 0.00 0.00 0.00 0.00 0.00 0.00 0.00 0.00 0.00 0.00 0.00 0.00 0.00 0.00 0.00 0.00 0.00 0.00
0.08 0.08 0.06 0.09 0.10 0.03 0.00 0.00 0.00 0.00 0.00 0.00 0.00 0.00 0.00 0.00 0.00 0.00 0.00 0.00 0.00 0.00 0.00 0.00 0.00 0.00 0.00 0.00 0.00 0.00 0.00 0.00 0.00 0.00 0.00 0.00 0.00 0.00 0.00 0.00 0.00 0.00 0.00
0.12 0.19 0.27 0.26 0.12 0.02 0.00 0.00 0.00 0.00 0.00 0.00 0.00 0.00 0.00 0.00 0.00 0.00 0.00 0.00 0.00 0.00 0.00 0.00 0.00 0.00 0.00 0.00 0.00 0.00 0.00 0.00 0.00 0.00 0.00 0.00 0.00 0.00 0.00 0.00 0.00 0.00 0.00
0.22 0.19 0.13 0.09 0.04 0.02 0.01 0.00 0.00 0.00 0.00 0.00 0.00 0.00 0.00 0.00 0.00 0.00 0.00 0.00 0.00 0.00 0.00 0.00 0.00 0.00 0.00 0.00 0.00 0.00 0.00 0.00 0.00 0.00 0.00 0.00 0.00 0.00 0.00 0.00 0.00 0.00 0.00
0.02 0.01 0.00 0.00 0.00 0.00 0.00 0.01 0.00 0.00 0.00 0.00 0.00 0.00 0.00 0.00 0.00 0.00 0.00 0.00 0.00 0.00 0.00 0.00 0.00 0.00 0.00 0.00 0.00 0.00 0.00 0.00 0.00 0.00 0.00 0.00 0.00 0.00 0.00 0.00 0.00 0.00 0.00
0.00 0.00 0.00 0.00 0.00 0.00 0.01 0.01 0.03 0.02 0.01 0.00 0.00 0.00 0.00 0.01 0.00 0.00 0.00 0.00 0.00 0.00 0.00 0.00 0.00 0.00 0.00 0.00 0.00 0.00 0.00 0.00 0.00 0.00 0.00 0.00 0.00 0.00 0.00 0.00 0.00 0.00 0.00
0.01 0.02 0.02 0.01 0.02 0.02 0.02 0.01 0.01 0.01 0.00 0.00 0.00 0.00 0.00 0.00 0.00 0.00 0.00 0.00 0.00 0.00 0.00 0.00 0.00 0.00 0.00 0.00 0.00 0.00 0.00 0.00 0.01 0.01 0.01 0.00 0.00 0.00 0.00 0.00 0.00 0.00 0.00
0.01 0.01 0.01 0.00 0.00 0.00 0.00 0.00 0.00 0.00 0.00 0.00 0.00 0.00 0.00 0.00 0.00 0.00 0.00 0.00 0.00 0.00 0.00 0.01 0.01 0.01 0.00 0.00 0.00 0.00 0.00 0.01 0.01 0.01 0.01 0.01 0.01 0.01 0.01 0.01 0.01 0.01 0.00
0.00 0.00 0.00 0.00 0.00 0.00 0.00 0.00 0.00 0.00 0.00 0.00 0.00 0.00 0.00 0.00 0.00 0.00 0.00 0.00 0.00 0.00 0.00 0.00 0.00 0.00 0.00 0.00 0.00 0.01 0.01 0.01 0.00 0.00 0.00 0.00 0.00 0.00 0.00 0.00 0.00 0.00 0.01
0.00 0.00 0.00 0.00 0.00 0.00 0.00 0.00 0.00 0.00 0.00 0.00 0.00 0.00 0.00 0.00 0.00 0.00 0.00 0.00 0.00 0.00 0.00 0.00 0.00 0.00 0.00 0.00 0.00 0.00 0.00 0.00 0.00 0.00 0.00 0.00 0.00 0.00 0.00 0.00 0.00 0.00 0.00
0.00 0.00 0.00 0.00 0.00 0.00 0.00 0.00 0.00 0.00 0.00 0.00 0.00 0.00 0.00 0.00 0.00 0.00 0.00 0.00 0.00 0.00 0.00 0.00 0.00 0.00 0.00 0.00 0.00 0.00 0.00 0.00 0.00 0.00 0.00 0.00 0.00 0.00 0.00 0.00 0.00 0.00 0.00
0.00 0.00 0.00 0.00 0.00 0.00 0.00 0.00 0.00 0.00 0.00 0.00 0.00 0.00 0.00 0.00 0.00 0.00 0.00 0.00 0.00 0.00 0.00 0.00 0.00 0.00 0.00 0.00 0.00 0.00 0.00 0.00 0.00 0.00 0.00 0.00 0.00 0.00 0.00 0.00 0.00 0.00 0.00
0.00 0.00 0.00 0.00 0.00 0.00 0.00 0.00 0.00 0.00 0.00 0.00 0.00 0.00 0.00 0.00 0.00 0.00 0.00 0.00 0.00 0.00 0.00 0.00 0.00 0.00 0.00 0.00 0.00 0.00 0.00 0.00 0.00 0.00 0.00 0.00 0.00 0.00 0.00 0.00 0.00 0.00 0.00
MSLP
1012.04 1012.37 1012.72 1013.08 1013.40 1013.70 1013.99 1014.41 1014.62 1014.88 1015.09 1015.27 1015.47 1015.67 1015.74 1015.82 1015.89 1016.12 1016.07 1016.01 1016.07 1016.25 1016.33 1016.44 1016.78 1016.82 1016.89 1016.85 1016.78 1016.68 1016.54 1016.40 1016.65 1016.19 1015.95 1015.19 1014.76 1014.28 1013.67 1013.34 1013.39 1013.14 1013.03
1012.19 1012.67 1013.13 1013.52 1013.94 1014.25 1014.57 1014.84 1015.08 1015.22 1015.39 1015.52 1015.59 1015.80 1015.92 1015.91 1015.81 1016.02 1016.23 1016.27 1016.12 1016.16 1016.36 1016.47 1016.67 1016.75 1016.82 1016.88 1016.78 1016.81 1016.82 1016.50 1016.51 1016.43 1016.05 1015.50 1014.91 1014.53 1014.01 1013.70 1013.35 1013.07 1012.92
1012.23 1012.87 1013.54 1014.02 1014.31 1014.63 1014.86 1015.08 1015.27 1015.39 1015.63 1015.80 1015.81 1015.90 1016.04 1016.04 1016.10 1016.19 1016.31 1016.39 1016.28 1016.21 1016.19 1016.33 1016.39 1016.45 1016.75 1016.91 1017.02 1016.91 1016.90 1016.80 1016.80 1016.68 1016.44 1015.70 1015.16 1014.77 1014.37 1013.98 1013.75 1013.49 1012.79
1011.02 1012.03 1012.88 1013.59 1014.18 1014.76 1015.09 1015.41 1015.57 1015.73 1015.86 1015.95 1016.13 1016.21 1016.19 1016.18 1016.20 1016.24 1016.38 1016.49 1016.43 1016.32 1016.24 1016.14 1016.09 1016.10 1016.35 1016.57 1016.95 1017.01 1016.92 1016.94 1016.94 1016.81 1016.52 1016.17 1015.80 1015.14 1014.91 1014.79 1014.57 1014.07 1013.47
1010.61 1011.54 1012.11 1012.95 1013.48 1013.87 1014.59 1015.25 1015.69 1015.94 1015.99 1016.03 1016.14 1016.27 1016.32 1016.30 1016.40 1016.55 1016.60 1016.65 1016.72 1016.52 1016.33 1016.18 1016.02 1015.81 1015.93 1016.11 1016.49 1016.74 1016.78 1016.90 1016.87 1016.81 1016.59 1016.39 1016.18 1015.89 1015.71 1015.42 1015.23 1014.83 1014.19
1009.60 1010.43 1011.42 1012.38 1012.94 1013.70 1014.08 1014.47 1015.14 1015.59 1015.87 1015.94 1015.85 1015.92 1016.22 1016.28 1016.39 1016.64 1016.64 1016.72 1016.80 1016.79 1016.63 1016.31 1016.06 1015.81 1015.99 1016.02 1016.18 1016.32 1016.41 1016.53 1016.63 1016.72 1016.60 1016.47 1016.21 1015.94 1015.79 1015.63 1015.63 1015.49 1015.18
1009.53 1010.43 1011.13 1011.67 1012.21 1012.92 1013.12 1013.97 1014.51 1014.89 1015.08 1015.46 1015.75 1015.84 1016.03 1016.04 1016.23 1016.49 1016.72 1016.94 1016.93 1016.80 1016.63 1016.47 1016.35 1016.03 1016.00 1016.19 1016.18 1016.13 1016.08 1016.01 1015.83 1015.94 1016.16 1016.19 1016.05 1015.80 1015.78 1015.72 1015.73 1015.76 1015.45
1008.99 1010.00 1010.61 1011.08 1011.92 1012.14 1012.58 1013.69 1014.28 1014.66 1014.99 1015.47 1015.70 1015.75 1016.02 1015.93 1016.11 1016.42 1016.61 1016.80 1016.98 1016.93 1016.72 1016.35 1016.10 1016.06 1016.04 1016.15 1016.18 1016.07 1015.90 1015.76 1015.58 1015.57 1015.65 1015.51 1015.55 1015.48 1015.63 1015.65 1015.56 1015.55 1015.16
1013.45 1013.02 1010.23 1010.70 1011.54 1012.36 1012.75 1013.27 1014.03 1014.62 1014.94 1015.09 1015.45 1015.61 1015.78 1015.96 1016.04 1016.01 1016.30 1016.60 1016.79 1016.80 1016.61 1016.25 1015.98 1016.15 1016.18 1016.01 1015.98 1016.05 1015.99 1015.65 1015.23 1015.18 1015.12 1015.01 1014.93 1014.90 1015.01 1015.35 1015.43 1015.55 1015.48
1011.51 1010.78 1012.46 1010.42 1011.27 1011.61 1012.02 1012.69 1013.05 1014.20 1014.69 1015.03 1015.07 1015.11 1015.32 1015.57 1015.67 1015.99 1016.04 1016.17 1016.59 1016.66 1016.54 1016.21 1015.96 1015.88 1016.09 1015.92 1015.89 1016.08 1016.15 1015.87 1015.57 1015.26 1014.88 1014.60 1014.45 1014.39 1014.42 1014.66 1015.04 1015.49 1015.60
1011.81 1005.77 1008.31 1010.00 1011.16 1012.05 1012.54 1013.33 1012.96 1014.08 1014.87 1015.22 1015.14 1015.23 1015.14 1015.38 1015.44 1015.73 1015.90 1016.50 1016.36 1016.38 1016.37 1016.27 1015.95 1015.80 1015.90 1015.90 1015.80 1015.89 1015.90 1015.82 1015.65 1015.74 1015.40 1014.80 1014.38 1013.96 1013.87 1013.82 1014.17 1014.84 1015.18
1009.37 1006.43 1006.71 1010.46 1011.55 1012.17 1012.58 1013.31 1013.12 1014.28 1014.89 1014.94 1015.04 1015.20 1015.10 1014.83 1015.05 1015.23 1015.58 1015.68 1016.27 1016.58 1016.02 1015.82 1015.70 1015.57 1015.50 1015.51 1015.59 1015.46 1015.43 1015.65 1015.83 1015.88 1015.62 1015.06 1014.55 1014.03 1013.66 1013.69 1013.85 1014.12 1014.42
1008.08 1008.80 1010.12 1010.93 1011.39 1011.92 1012.47 1013.30 1013.82 1014.35 1014.79 1014.84 1014.99 1015.30 1014.77 1014.65 1014.73 1015.08 1015.24 1015.54 1015.40 1016.17 1016.21 1015.68 1015.51 1015.40 1015.29 1015.17 1015.09 1015.08 1015.14 1015.41 1015.59 1015.68 1015.61 1015.21 1014.56 1014.16 1014.04 1013.98 1014.00 1014.11 1014.13
1010.34 1010.58 1011.49 1011.09 1011.28 1012.18 1012.58 1012.95 1013.62 1014.22 1014.63 1014.99 1015.18 1015.05 1014.57 1014.38 1014.28 1014.45 1015.00 1015.12 1015.23 1015.71 1015.81 1015.49 1015.19 1015.00 1014.97 1014.91 1014.73 1014.68 1014.80 1014.96 1015.29 1015.18 1015.04 1014.80 1014.47 1014.32 1014.17 1014.09 1014.27 1014.18 1014.32
1010.77 1011.21 1011.66 1011.75 1011.83 1012.31 1012.49 1012.92 1013.42 1013.57 1013.89 1014.23 1014.39 1014.57 1014.59 1014.44 1013.90 1013.89 1014.46 1015.04 1015.05 1015.14 1015.66 1015.82 1015.20 1015.07 1014.87 1014.74 1014.39 1014.20 1014.28 1014.39 1014.62 1014.51 1014.74 1014.70 1014.60 1014.40 1014.08 1013.74 1013.76 1013.93 1014.18
1011.30 1011.47 1011.60 1012.01 1012.05 1012.55 1012.83 1013.02 1013.05 1013.18 1013.50 1013.75 1013.86 1013.85 1014.10 1013.57 1013.34 1013.73 1014.21 1014.28 1014.39 1014.84 1015.32 1015.75 1015.80 1015.29 1015.10 1014.69 1014.41 1014.10 1013.82 1013.75 1013.76 1013.81 1013.97 1014.08 1014.04 1013.94 1013.84 1013.54 1013.56 1013.76 1013.98
1011.81 1011.56 1011.68 1012.01 1012.10 1012.43 1012.80 1012.98 1013.36 1013.18 1012.91 1013.37 1013.85 1014.17 1013.97 1013.57 1013.49 1013.79 1014.15 1014.50 1014.59 1014.43 1014.70 1015.04 1015.39 1014.98 1014.55 1014.27 1014.04 1013.89 1013.65 1013.16 1012.98 1013.11 1013.25 1013.16 1013.12 1013.14 1013.42 1013.26 1013.32 1013.50 1013.54
1011.56 1011.70 1011.52 1012.03 1012.37 1012.83 1013.09 1013.45 1013.52 1013.89 1013.87 1013.81 1013.83 1013.85 1013.77 1013.80 1013.95 1014.20 1014.37 1014.48 1014.73 1014.90 1014.48 1014.49 1014.47 1014.37 1014.11 1013.69 1013.55 1013.38 1013.00 1012.73 1012.61 1012.46 1012.60 1012.34 1012.26 1012.37 1012.65 1012.77 1012.80 1012.98 1013.03
1012.69 1012.57 1012.41 1012.49 1012.74 1013.22 1013.63 1013.76 1014.10 1014.18 1014.25 1014.00 1014.18 1014.02 1014.16 1014.54 1014.94 1015.21 1014.92 1015.12 1014.93 1014.80 1014.48 1014.40 1014.16 1014.00 1013.79 1013.55 1013.31 1013.10 1012.81 1012.44 1012.11 1012.03 1011.99 1012.22 1012.33 1012.46 1012.47 1012.29 1012.17 1012.17 1012.30
1013.20 1013.04 1012.88 1013.05 1013.34 1013.50 1013.63 1013.87 1014.01 1013.97 1014.33 1014.54 1014.67 1014.76 1014.36 1014.53 1015.07 1015.16 1015.23 1014.86 1014.75 1014.72 1014.50 1014.47 1014.18 1014.08 1013.97 1013.84 1013.48 1013.35 1013.31 1013.32 1013.22 1013.01 1012.69 1012.61 1012.43 1012.18 1012.16 1012.20 1012.12 1012.13 1012.00
1013.68 1013.77 1013.51 1013.45 1013.81 1013.78 1014.10 1014.35 1014.40 1014.25 1014.69 1015.36 1015.47 1015.32 1014.97 1015.01 1015.45 1015.15 1015.75 1015.37 1015.05 1015.01 1014.62 1014.64 1014.34 1014.14 1014.18 1014.02 1014.03 1014.13 1014.23 1014.18 1014.31 1014.07 1014.07 1013.71 1012.88 1012.69 1012.08 1011.89 1011.55 1011.69 1011.68
1014.18 1014.32 1014.30 1014.38 1014.54 1014.53 1014.78 1014.95 1014.89 1015.03 1015.31 1015.77 1015.87 1015.49 1015.24 1015.35 1015.40 1015.94 1016.36 1015.54 1015.09 1014.93 1014.77 1014.74 1014.50 1014.35 1014.37 1014.32 1014.73 1014.58 1014.57 1014.97 1014.90 1014.62 1014.35 1014.21 1013.79 1013.16 1013.07 1012.68 1011.78 1011.41 1011.37
1014.80 1014.93 1015.02 1014.94 1015.18 1015.36 1015.61 1015.62 1015.57 1015.65 1015.91 1016.12 1015.92 1015.66 1015.75 1016.26 1016.70 1016.31 1015.58 1015.27 1014.88 1014.71 1014.52 1014.48 1014.36 1014.29 1014.24 1014.38 1014.43 1014.42 1014.79 1014.78 1014.74 1014.68 1014.54 1014.54 1013.87 1013.77 1013.34 1012.99 1012.80 1012.25 1011.56
1015.84 1016.12 1016.12 1016.44 1016.43 1016.43 1016.52 1016.54 1016.48 1016.42 1016.46 1016.60 1016.61 1016.65 1016.64 1016.26 1015.78 1015.43 1015.24 1015.10 1014.75 1014.45 1014.17 1014.02 1013.85 1013.86 1013.96 1014.01 1014.06 1014.02 1013.96 1013.92 1013.95 1014.08 1014.01 1013.99 1014.00 1013.50 1013.48 1013.31 1013.08 1012.65 1012.11
1016.62 1017.09 1017.10 1017.16 1017.16 1017.16 1017.12 1017.21 1017.16 1016.98 1016.84 1016.68 1016.55 1016.30 1015.88 1015.52 1015.49 1015.25 1014.91 1014.57 1014.23 1014.08 1013.89 1013.65 1013.55 1013.45 1013.35 1013.27 1013.22 1013.17 1013.14 1013.32 1013.44 1013.46 1013.56 1013.45 1013.33 1013.25 1013.23 1013.17 1012.88 1012.47 1012.12
1017.11 1017.15 1017.23 1017.25 1017.29 1017.28 1017.18 1017.03 1016.95 1016.86 1016.69 1016.42 1016.05 1015.75 1015.54 1015.23 1014.77 1014.47 1014.23 1014.02 1013.95 1013.68 1013.38 1013.11 1013.03 1012.91 1012.88 1012.92 1012.71 1012.64 1012.74 1012.86 1012.93 1012.89 1013.01 1013.15 1012.99 1012.81 1012.74 1012.67 1012.48 1012.27 1011.87
Thickness
5793 5791 5789 5786 5784 5781 5778 5774 5773 5770 5767 5765 5762 5761 5760 5759 5758 5755 5755 5754 5753 5750 5749 5745 5741 5740 5737 5737 5737 5736 5737 5735 5726 5730 5732 5740 5741 5743 5748 5751 5751 5753 5753
5792 5787 5783 5780 5776 5773 5770 5768 5766 5763 5762 5760 5758 5756 5755 5755 5756 5753 5750 5749 5749 5748 5746 5743 5739 5737 5735 5734 5732 5730 5730 5732 5727 5721 5725 5730 5734 5736 5738 5740 5744 5745 5747
5789 5783 5776 5772 5769 5766 5764 5761 5759 5757 5754 5753 5752 5750 5748 5748 5747 5746 5744 5743 5743 5742 5742 5740 5738 5735 5730 5727 5724 5724 5723 5723 5720 5717 5716 5723 5726 5727 5728 5732 5732 5734 5740
5801 5790 5780 5773 5767 5761 5756 5752 5749 5747 5745 5745 5743 5742 5741 5742 5741 5740 5737 5735 5735 5736 5736 5736 5735 5732 5727 5724 5718 5716 5715 5713 5710 5709 5708 5710 5712 5716 5717 5716 5716 5720 5725
5802 5793 5785 5776 5771 5767 5758 5750 5744 5740 5739 5739 5737 5736 5734 5734 5732 5729 5729 5728 5727 5728 5729 5729 5728 5727 5724 5721 5716 5711 5708 5704 5701 5700 5701 5699 5699 5699 5699 5702 5701 5705 5710
5807 5797 5789 5778 5771 5764 5759 5754 5746 5741 5737 5736 5736 5735 5729 5729 5728 5724 5722 5720 5719 5718 5717 5719 5720 5719 5715 5714 5712 5707 5704 5698 5695 5692 5692 5690 5690 5691 5692 5692 5689 5689 5690
5801 5792 5784 5778 5773 5766 5763 5754 5748 5743 5741 5737 5733 5731 5726 5724 5722 5719 5716 5711 5711 5710 5710 5709 5709 5709 5706 5702 5700 5698 5696 5694 5694 5690 5685 5684 5683 5684 5684 5683 5682 5679 5681
5795 5788 5780 5775 5768 5765 5761 5748 5743 5739 5735 5728 5725 5724 5720 5720 5717 5712 5709 5704 5701 5701 5701 5702 5701 5699 5697 5693 5689 5688 5687 5686 5686 5684 5681 5681 5679 5679 5677 5676 5676 5675 5678
5720 5737 5770 5767 5761 5752 5747 5742 5737 5731 5729 5726 5720 5717 5713 5709 5708 5708 5703 5697 5695 5693 5693 5692 5692 5689 5687 5686 5683 5680 5678 5678 5679 5677 5676 5676 5675 5674 5673 5670 5668 5666 5666
5706 5724 5722 5753 5749 5747 5746 5740 5737 5727 5722 5718 5714 5711 5708 5705 5702 5699 5697 5693 5688 5686 5685 5684 5684 5682 5678 5677 5674 5672 5667 5667 5668 5668 5670 5671 5671 5670 5668 5667 5663 5658 5656
5703 5734 5720 5735 5734 5732 5729 5727 5729 5719 5711 5706 5705 5702 5700 5697 5695 5692 5691 5682 5682 5681 5679 5677 5677 5676 5671 5668 5667 5664 5661 5660 5660 5656 5657 5661 5663 5665 5665 5664 5661 5655 5651
5715 5706 5720 5717 5718 5718 5719 5718 5717 5706 5702 5698 5696 5695 5693 5694 5690 5688 5685 5682 5674 5669 5674 5671 5670 5670 5668 5665 5661 5660 5658 5653 5649 5647 5647 5651 5653 5656 5658 5657 5654 5652 5650
5734 5723 5715 5713 5714 5715 5713 5706 5701 5694 5689 5690 5688 5685 5688 5687 5685 5680 5678 5674 5673 5664 5661 5663 5663 5662 5661 5659 5657 5655 5652 5647 5643 5640 5638 5641 5645 5647 5646 5646 5645 5643 5644
5720 5713 5704 5708 5709 5704 5704 5701 5692 5683 5681 5679 5679 5680 5680 5681 5681 5678 5671 5668 5664 5659 5656 5656 5656 5656 5655 5653 5652 5649 5646 5643 5637 5636 5635 5635 5637 5637 5637 5636 5635 5634 5634
5706 5702 5698 5697 5697 5696 5697 5692 5686 5685 5682 5678 5677 5676 5671 5670 5675 5673 5666 5659 5656 5653 5645 5641 5644 5645 5645 5646 5646 5645 5641 5638 5634 5633 5629 5627 5627 5629 5630 5630 5630 5628 5625
5692 5691 5693 5687 5689 5687 5685 5683 5683 5682 5678 5674 5673 5671 5668 5671 5672 5665 5658 5656 5652 5647 5640 5634 5629 5632 5632 5634 5633 5634 5635 5634 5631 5629 5625 5623 5622 5621 5621 5623 5622 5618 5615
5679 5685 5684 5682 5682 5680 5678 5676 5672 5674 5674 5669 5663 5657 5656 5660 5660 5655 5649 5643 5640 5640 5636 5629 5623 5624 5626 5626 5625 5624 5625 5627 5626 5622 5620 5619 5618 5617 5613 5613 5612 5611 5610
5681 5680 5683 5677 5673 5669 5668 5665 5663 5658 5657 5657 5655 5651 5648 5646 5644 5639 5634 5632 5629 5624 5627 5624 5620 5619 5619 5619 5618 5616 5617 5617 5617 5617 5615 5615 5614 5611 5607 5605 5604 5602 5601
5671 5669 5670 5670 5666 5661 5657 5656 5652 5650 5647 5647 5644 5643 5637 5629 5623 5619 5619 5616 5615 5614 5615 5612 5611 5610 5609 5607 5606 5605 5605 5607 5608 5609 5608 5605 5602 5599 5597 5596 5596 5595 5594
5661 5661 5661 5659 5656 5653 5650 5648 5645 5642 5637 5633 5629 5625 5625 5620 5614 5612 5605 5605 5601 5599 5598 5595 5595 5593 5591 5590 5590 5589 5587 5585 5584 5586 5587 5587 5587 5589 5587 5585 5585 5582 5582
5652 5650 5650 5649 5645 5643 5639 5634 5630 5629 5624 5615 5609 5606 5605 5605 5600 5599 5588 5584 5582 5580 5579 5575 5576 5575 5573 5571 5568 5565 5562 5561 5559 5560 5558 5560 5567 5569 5575 5577 5579 5577 5576
5642 5639 5636 5632 5629 5627 5622 5617 5613 5609 5604 5598 5593 5591 5588 5584 5581 5570 5560 5564 5564 5561 5559 5556 5556 5555 5551 5549 5543 5542 5541 5537 5537 5540 5540 5540 5545 5549 5548 5553 5563 5567 5567
5623 5621 5620 5619 5615 5610 5604 5600 5596 5592 5586 5580 5576 5573 5567 5554 5541 5543 5548 5546 5545 5542 5540 5537 5535 5533 5531 5528 5525 5524 5520 5518 5518 5518 5519 5519 5525 5527 5530 5533 5536 5541 5548
5602 5597 5593 5586 5584 5580 5574 5570 5567 5563 5557 5550 5544 5539 5536 5537 5538 5537 5533 5529 5527 5524 5522 5519 5518 5517 5514 5511 5509 5507 5505 5505 5504 5503 5504 5504 5504 5509 5509 5511 5514 5520 5524
5588 5580 5576 5571 5566 5560 5556 5549 5545 5541 5538 5535 5532 5530 5528 5526 5520 5516 5515 5513 5512 5509 5507 5505 5503 5501 5499 5497 5495 5494 5493 5491 5489 5488 5487 5488 5489 5490 5491 5493 5496 5500 5505
5576 5571 5567 5563 5557 5551 5546 5543 5539 5534 5530 5527 5524 5520 5516 5514 5512 5509 5504 5501 5497 5496 5494 5491 5488 5486 5485 5483 5482 5480 5477 5476 5475 5474 5472 5471 5471 5472 5474 5476 5479 5482 5487